owner,sensor,date,latitude,longitude,vertical_datum,direction_of_sea_water_velocity,sea_water_speed,upward_sea_water_velocity,qcFlag 
TABS,ioos:station:wmo:42043:1,1997-10-01T00:00:00Z,28.9818,-94.9186,2.0,252.576939,15.93087882,-99999.0,'11111222,11111222,99999999' 
TABS,ioos:station:wmo:42043:1,1997-10-01T00:30:00Z,28.9818,-94.9186,2.0,257.6127511,20.13880086,-99999.0,'11111222,11111222,99999999' 
TABS,ioos:station:wmo:42043:1,1997-10-01T01:00:00Z,28.9818,-94.9186,2.0,258.9364043,20.9493198,-99999.0,'11111222,11111222,99999999' 
TABS,ioos:station:wmo:42043:1,1997-10-01T01:30:00Z,28.9818,-94.9186,2.0,274.0111661,23.44742417,-99999.0,'11111222,11111222,99999999' 
TABS,ioos:station:wmo:42043:1,1997-10-01T02:00:00Z,28.9818,-94.9186,2.0,278.8634311,26.09154652,-99999.0,'11111222,11111222,99999999' 
TABS,ioos:station:wmo:42043:1,1997-10-01T02:30:00Z,28.9818,-94.9186,2.0,282.6101968,30.69026719,-99999.0,'11111222,11111222,99999999' 
TABS,ioos:station:wmo:42043:1,1997-10-01T03:00:00Z,28.9818,-94.9186,2.0,288.6547727,36.32851222,-99999.0,'11111222,11111222,99999999' 
TABS,ioos:station:wmo:42043:1,1997-10-01T03:30:00Z,28.9818,-94.9186,2.0,295.0678257,38.33035351,-99999.0,'11111222,11111222,99999999' 
TABS,ioos:station:wmo:42043:1,1997-10-01T04:00:00Z,28.9818,-94.9186,2.0,299.7201268,33.96815568,-99999.0,'11111222,11111222,99999999' 
TABS,ioos:station:wmo:42043:1,1997-10-01T04:30:00Z,28.9818,-94.9186,2.0,302.1005027,35.88627732,-99999.0,'11111222,11111222,99999999' 
TABS,ioos:station:wmo:42043:1,1997-10-01T05:00:00Z,28.9818,-94.9186,2.0,301.8553428,34.73095017,-99999.0,'11111222,11111222,99999999' 
TABS,ioos:station:wmo:42043:1,1997-10-01T05:30:00Z,28.9818,-94.9186,2.0,309.8107485,30.25383447,-99999.0,'11111222,11111222,99999999' 
TABS,ioos:station:wmo:42043:1,1997-10-01T06:00:00Z,28.9818,-94.9186,2.0,316.4978999,28.13831907,-99999.0,'11111222,11111222,99999999' 
TABS,ioos:station:wmo:42043:1,1997-10-01T06:30:00Z,28.9818,-94.9186,2.0,319.222536,20.07267048,-99999.0,'11111222,11111222,99999999' 
TABS,ioos:station:wmo:42043:1,1997-10-01T07:00:00Z,28.9818,-94.9186,2.0,328.1141527,20.88094347,-99999.0,'11111222,11111222,99999999' 
TABS,ioos:station:wmo:42043:1,1997-10-01T07:30:00Z,28.9818,-94.9186,2.0,335.9247685,20.07647877,-99999.0,'11111222,11111222,99999999' 
TABS,ioos:station:wmo:42043:1,1997-10-01T08:00:00Z,28.9818,-94.9186,2.0,345.2985751,18.79535315,-99999.0,'11111222,11111222,99999999' 
TABS,ioos:station:wmo:42043:1,1997-10-01T08:30:00Z,28.9818,-94.9186,2.0,343.1795285,18.52248633,-99999.0,'11111222,11111222,99999999' 
TABS,ioos:station:wmo:42043:1,1997-10-01T09:00:00Z,28.9818,-94.9186,2.0,344.1588051,13.62756398,-99999.0,'11111222,11111222,99999999' 
TABS,ioos:station:wmo:42043:1,1997-10-01T09:30:00Z,28.9818,-94.9186,2.0,333.1978099,16.18927114,-99999.0,'11111222,11111222,99999999' 
TABS,ioos:station:wmo:42043:1,1997-10-01T10:00:00Z,28.9818,-94.9186,2.0,333.0815491,10.86749741,-99999.0,'11111222,11111222,99999999' 
TABS,ioos:station:wmo:42043:1,1997-10-01T10:30:00Z,28.9818,-94.9186,2.0,344.4284438,12.2184819,-99999.0,'11111222,11111222,99999999' 
TABS,ioos:station:wmo:42043:1,1997-10-01T11:00:00Z,28.9818,-94.9186,2.0,4.924871671,12.11472245,-99999.0,'11111222,11111222,99999999' 
TABS,ioos:station:wmo:42043:1,1997-10-01T11:30:00Z,28.9818,-94.9186,2.0,9.877754521,10.43467776,-99999.0,'11111222,11111222,99999999' 
TABS,ioos:station:wmo:42043:1,1997-10-01T12:00:00Z,28.9818,-94.9186,2.0,26.56519952,9.324403466,-99999.0,'11133222,11111222,99999999' 
TABS,ioos:station:wmo:42043:1,1997-10-01T12:30:00Z,28.9818,-94.9186,2.0,39.92898758,9.519564066,-99999.0,'11133222,11111222,99999999' 
TABS,ioos:station:wmo:42043:1,1997-10-01T13:00:00Z,28.9818,-94.9186,2.0,46.59276653,7.377973977,-99999.0,'11133222,11111222,99999999' 
TABS,ioos:station:wmo:42043:1,1997-10-01T13:30:00Z,28.9818,-94.9186,2.0,56.54847677,9.995784111,-99999.0,'11133222,11111222,99999999' 
TABS,ioos:station:wmo:42043:1,1997-10-01T14:00:00Z,28.9818,-94.9186,2.0,66.32649137,11.87970117,-99999.0,'11111222,11111222,99999999' 
TABS,ioos:station:wmo:42043:1,1997-10-01T14:30:00Z,28.9818,-94.9186,2.0,74.2371525,12.07405483,-99999.0,'11111222,11111222,99999999' 
TABS,ioos:station:wmo:42043:1,1997-10-01T15:00:00Z,28.9818,-94.9186,2.0,78.44090665,12.62607619,-99999.0,'11111222,11111222,99999999' 
TABS,ioos:station:wmo:42043:1,1997-10-01T15:30:00Z,28.9818,-94.9186,2.0,81.50792722,16.11669941,-99999.0,'11111222,11111222,99999999' 
TABS,ioos:station:wmo:42043:1,1997-10-01T16:00:00Z,28.9818,-94.9186,2.0,111.2373507,13.5824151,-99999.0,'11111222,11111222,99999999' 
TABS,ioos:station:wmo:42043:1,1997-10-01T16:30:00Z,28.9818,-94.9186,2.0,112.8791409,13.42629137,-99999.0,'11111222,11111222,99999999' 
TABS,ioos:station:wmo:42043:1,1997-10-01T17:00:00Z,28.9818,-94.9186,2.0,108.6291275,13.99315904,-99999.0,'11111222,11111222,99999999' 
TABS,ioos:station:wmo:42043:1,1997-10-01T17:30:00Z,28.9818,-94.9186,2.0,100.486355,8.18673317,-99999.0,'11133222,11111222,99999999' 
TABS,ioos:station:wmo:42043:1,1997-10-01T18:00:00Z,28.9818,-94.9186,2.0,98.63297158,6.928499116,-99999.0,'11133222,11111222,99999999' 
TABS,ioos:station:wmo:42043:1,1997-10-01T18:30:00Z,28.9818,-94.9186,2.0,142.3994721,6.588535497,-99999.0,'11133222,11111222,99999999' 
TABS,ioos:station:wmo:42043:1,1997-10-01T19:00:00Z,28.9818,-94.9186,2.0,165.1172693,7.553383348,-99999.0,'11133222,11111222,99999999' 
TABS,ioos:station:wmo:42043:1,1997-10-01T19:30:00Z,28.9818,-94.9186,2.0,176.8548394,8.202353321,-99999.0,'11133222,11111222,99999999' 
TABS,ioos:station:wmo:42043:1,1997-10-01T20:00:00Z,28.9818,-94.9186,2.0,193.1565619,9.797167958,-99999.0,'11133222,11111222,99999999' 
TABS,ioos:station:wmo:42043:1,1997-10-01T20:30:00Z,28.9818,-94.9186,2.0,208.5534118,9.665635002,-99999.0,'11133222,11111222,99999999' 
TABS,ioos:station:wmo:42043:1,1997-10-01T21:00:00Z,28.9818,-94.9186,2.0,226.6943274,7.173200123,-99999.0,'11133222,11111222,99999999' 
TABS,ioos:station:wmo:42043:1,1997-10-01T21:30:00Z,28.9818,-94.9186,2.0,234.0843857,8.643199639,-99999.0,'11133222,11111222,99999999' 
TABS,ioos:station:wmo:42043:1,1997-10-01T22:00:00Z,28.9818,-94.9186,2.0,240.5347848,7.867617174,-99999.0,'11133222,11111222,99999999' 
TABS,ioos:station:wmo:42043:1,1997-10-01T22:30:00Z,28.9818,-94.9186,2.0,250.6276031,11.21493647,-99999.0,'11111222,11111222,99999999' 
TABS,ioos:station:wmo:42043:1,1997-10-01T23:00:00Z,28.9818,-94.9186,2.0,259.8701757,8.47205406,-99999.0,'11133222,11111222,99999999' 
TABS,ioos:station:wmo:42043:1,1997-10-01T23:30:00Z,28.9818,-94.9186,2.0,288.7752785,6.928672311,-99999.0,'11133222,11111222,99999999' 
TABS,ioos:station:wmo:42043:1,1997-10-02T00:00:00Z,28.9818,-94.9186,2.0,345.5562085,4.770796579,-99999.0,'11133222,11111222,99999999' 
TABS,ioos:station:wmo:42043:1,1997-10-02T00:30:00Z,28.9818,-94.9186,2.0,338.1723016,4.007305828,-99999.0,'11133222,11111222,99999999' 
TABS,ioos:station:wmo:42043:1,1997-10-02T01:00:00Z,28.9818,-94.9186,2.0,4.105299372,2.095375861,-99999.0,'11133222,11111222,99999999' 
TABS,ioos:station:wmo:42043:1,1997-10-02T01:30:00Z,28.9818,-94.9186,2.0,49.015832,4.543709938,-99999.0,'11133222,11111222,99999999' 
TABS,ioos:station:wmo:42043:1,1997-10-02T02:00:00Z,28.9818,-94.9186,2.0,72.67523599,7.018411501,-99999.0,'11133222,11111222,99999999' 
TABS,ioos:station:wmo:42043:1,1997-10-02T02:30:00Z,28.9818,-94.9186,2.0,69.52018032,13.2045939,-99999.0,'11111222,11111222,99999999' 
TABS,ioos:station:wmo:42043:1,1997-10-02T03:00:00Z,28.9818,-94.9186,2.0,61.54092913,18.13100108,-99999.0,'11111222,11111222,99999999' 
TABS,ioos:station:wmo:42043:1,1997-10-02T03:30:00Z,28.9818,-94.9186,2.0,56.18595654,17.93349938,-99999.0,'11111222,11111222,99999999' 
TABS,ioos:station:wmo:42043:1,1997-10-02T04:00:00Z,28.9818,-94.9186,2.0,59.99164724,19.95491919,-99999.0,'11111222,11111222,99999999' 
TABS,ioos:station:wmo:42043:1,1997-10-02T04:30:00Z,28.9818,-94.9186,2.0,71.55615162,20.26071322,-99999.0,'11111222,11111222,99999999' 
TABS,ioos:station:wmo:42043:1,1997-10-02T05:00:00Z,28.9818,-94.9186,2.0,81.57098557,20.32959665,-99999.0,'11111222,11111222,99999999' 
TABS,ioos:station:wmo:42043:1,1997-10-02T05:30:00Z,28.9818,-94.9186,2.0,83.62506836,25.48760091,-99999.0,'11111222,11111222,99999999' 
TABS,ioos:station:wmo:42043:1,1997-10-02T06:00:00Z,28.9818,-94.9186,2.0,90.0,23.69,-99999.0,'11111222,11111222,99999999' 
TABS,ioos:station:wmo:42043:1,1997-10-02T06:30:00Z,28.9818,-94.9186,2.0,84.61110036,26.93906643,-99999.0,'11111222,11111222,99999999' 
TABS,ioos:station:wmo:42043:1,1997-10-02T07:00:00Z,28.9818,-94.9186,2.0,87.63063463,28.78460873,-99999.0,'11111222,11111222,99999999' 
TABS,ioos:station:wmo:42043:1,1997-10-02T07:30:00Z,28.9818,-94.9186,2.0,83.32736426,33.30560463,-99999.0,'11111222,11111222,99999999' 
TABS,ioos:station:wmo:42043:1,1997-10-02T08:00:00Z,28.9818,-94.9186,2.0,86.37092212,35.23064717,-99999.0,'11111222,11111222,99999999' 
TABS,ioos:station:wmo:42043:1,1997-10-02T08:30:00Z,28.9818,-94.9186,2.0,91.78709246,38.15855998,-99999.0,'11111222,11111222,99999999' 
TABS,ioos:station:wmo:42043:1,1997-10-02T09:00:00Z,28.9818,-94.9186,2.0,95.43357088,36.22276218,-99999.0,'11111222,11111222,99999999' 
TABS,ioos:station:wmo:42043:1,1997-10-02T09:30:00Z,28.9818,-94.9186,2.0,102.1964152,33.84389014,-99999.0,'11111222,11111222,99999999' 
TABS,ioos:station:wmo:42043:1,1997-10-02T10:00:00Z,28.9818,-94.9186,2.0,111.1088582,32.2650647,-99999.0,'11111222,11111222,99999999' 
TABS,ioos:station:wmo:42043:1,1997-10-02T10:30:00Z,28.9818,-94.9186,2.0,119.0076454,34.41752606,-99999.0,'11111222,11111222,99999999' 
TABS,ioos:station:wmo:42043:1,1997-10-02T11:00:00Z,28.9818,-94.9186,2.0,124.8832885,35.4252904,-99999.0,'11111222,11111222,99999999' 
TABS,ioos:station:wmo:42043:1,1997-10-02T11:30:00Z,28.9818,-94.9186,2.0,126.9080425,35.96800801,-99999.0,'11111222,11111222,99999999' 
TABS,ioos:station:wmo:42043:1,1997-10-02T12:00:00Z,28.9818,-94.9186,2.0,133.9116744,33.50876303,-99999.0,'11111222,11111222,99999999' 
TABS,ioos:station:wmo:42043:1,1997-10-02T12:30:00Z,28.9818,-94.9186,2.0,142.8014813,31.04651027,-99999.0,'11111222,11111222,99999999' 
TABS,ioos:station:wmo:42043:1,1997-10-02T13:00:00Z,28.9818,-94.9186,2.0,153.446453,21.98949295,-99999.0,'11111222,11111222,99999999' 
TABS,ioos:station:wmo:42043:1,1997-10-02T13:30:00Z,28.9818,-94.9186,2.0,158.2024501,26.47272748,-99999.0,'11111222,11111222,99999999' 
TABS,ioos:station:wmo:42043:1,1997-10-02T14:00:00Z,28.9818,-94.9186,2.0,158.6405584,28.6369307,-99999.0,'11111222,11111222,99999999' 
TABS,ioos:station:wmo:42043:1,1997-10-02T14:30:00Z,28.9818,-94.9186,2.0,158.603015,26.56066641,-99999.0,'11111222,11111222,99999999' 
TABS,ioos:station:wmo:42043:1,1997-10-02T15:00:00Z,28.9818,-94.9186,2.0,169.43133,26.82504986,-99999.0,'11111222,11111222,99999999' 
TABS,ioos:station:wmo:42043:1,1997-10-02T15:30:00Z,28.9818,-94.9186,2.0,173.3363452,11.54800849,-99999.0,'11111222,11111222,99999999' 
TABS,ioos:station:wmo:42043:1,1997-10-02T16:00:00Z,28.9818,-94.9186,2.0,181.4061105,6.111840967,-99999.0,'11133222,11111222,99999999' 
TABS,ioos:station:wmo:42043:1,1997-10-02T16:30:00Z,28.9818,-94.9186,2.0,188.3332575,12.35040485,-99999.0,'11111222,11111222,99999999' 
TABS,ioos:station:wmo:42043:1,1997-10-02T17:00:00Z,28.9818,-94.9186,2.0,203.7905078,4.065464303,-99999.0,'11133222,11111222,99999999' 
TABS,ioos:station:wmo:42043:1,1997-10-02T17:30:00Z,28.9818,-94.9186,2.0,207.4802103,16.79501414,-99999.0,'11111222,11111222,99999999' 
TABS,ioos:station:wmo:42043:1,1997-10-02T18:00:00Z,28.9818,-94.9186,2.0,229.9361931,3.697742555,-99999.0,'11133222,11111222,99999999' 
TABS,ioos:station:wmo:42043:1,1997-10-02T18:30:00Z,28.9818,-94.9186,2.0,226.3499908,17.70379903,-99999.0,'11111222,11111222,99999999' 
TABS,ioos:station:wmo:42043:1,1997-10-02T19:00:00Z,28.9818,-94.9186,2.0,242.0301148,11.13001797,-99999.0,'11111222,11111222,99999999' 
TABS,ioos:station:wmo:42043:1,1997-10-02T19:30:00Z,28.9818,-94.9186,2.0,261.7524864,10.38742028,-99999.0,'11111222,11111222,99999999' 
TABS,ioos:station:wmo:42043:1,1997-10-02T20:00:00Z,28.9818,-94.9186,2.0,268.6103046,12.3736373,-99999.0,'11111222,11111222,99999999' 
TABS,ioos:station:wmo:42043:1,1997-10-02T20:30:00Z,28.9818,-94.9186,2.0,272.2834237,15.06195538,-99999.0,'11111222,11111222,99999999' 
TABS,ioos:station:wmo:42043:1,1997-10-02T21:00:00Z,28.9818,-94.9186,2.0,270.6712995,12.81087819,-99999.0,'11111222,11111222,99999999' 
TABS,ioos:station:wmo:42043:1,1997-10-02T21:30:00Z,28.9818,-94.9186,2.0,270.0004209,11.77,-99999.0,'11111222,11111222,99999999' 
TABS,ioos:station:wmo:42043:1,1997-10-02T22:00:00Z,28.9818,-94.9186,2.0,280.1967289,11.8064601,-99999.0,'11111222,11111222,99999999' 
TABS,ioos:station:wmo:42043:1,1997-10-02T22:30:00Z,28.9818,-94.9186,2.0,288.842269,12.91190536,-99999.0,'11111222,11111222,99999999' 
TABS,ioos:station:wmo:42043:1,1997-10-02T23:00:00Z,28.9818,-94.9186,2.0,292.7521946,20.03928392,-99999.0,'11111222,11111222,99999999' 
TABS,ioos:station:wmo:42043:1,1997-10-02T23:30:00Z,28.9818,-94.9186,2.0,291.7488899,26.15148562,-99999.0,'11111222,11111222,99999999' 
TABS,ioos:station:wmo:42043:1,1997-10-03T00:00:00Z,28.9818,-94.9186,2.0,293.9996807,25.27501731,-99999.0,'11111222,11111222,99999999' 
TABS,ioos:station:wmo:42043:1,1997-10-03T00:30:00Z,28.9818,-94.9186,2.0,295.4067796,29.85761209,-99999.0,'11111222,11111222,99999999' 
TABS,ioos:station:wmo:42043:1,1997-10-03T01:00:00Z,28.9818,-94.9186,2.0,289.3807516,31.43099426,-99999.0,'11111222,11111222,99999999' 
TABS,ioos:station:wmo:42043:1,1997-10-03T01:30:00Z,28.9818,-94.9186,2.0,285.2508332,32.27661228,-99999.0,'11111222,11111222,99999999' 
TABS,ioos:station:wmo:42043:1,1997-10-03T02:00:00Z,28.9818,-94.9186,2.0,283.8478068,32.38110715,-99999.0,'11111222,11111222,99999999' 
TABS,ioos:station:wmo:42043:1,1997-10-03T02:30:00Z,28.9818,-94.9186,2.0,286.2521281,29.80080032,-99999.0,'11111222,11111222,99999999' 
TABS,ioos:station:wmo:42043:1,1997-10-03T03:00:00Z,28.9818,-94.9186,2.0,287.4230978,29.35684247,-99999.0,'11111222,11111222,99999999' 
TABS,ioos:station:wmo:42043:1,1997-10-03T03:30:00Z,28.9818,-94.9186,2.0,287.3179004,29.02574202,-99999.0,'11111222,11111222,99999999' 
TABS,ioos:station:wmo:42043:1,1997-10-03T04:00:00Z,28.9818,-94.9186,2.0,290.1215682,27.29595208,-99999.0,'11111222,11111222,99999999' 
TABS,ioos:station:wmo:42043:1,1997-10-03T04:30:00Z,28.9818,-94.9186,2.0,287.721525,26.90674637,-99999.0,'11111222,11111222,99999999' 
TABS,ioos:station:wmo:42043:1,1997-10-03T05:00:00Z,28.9818,-94.9186,2.0,285.7493167,25.23740478,-99999.0,'11111222,11111222,99999999' 
TABS,ioos:station:wmo:42043:1,1997-10-03T05:30:00Z,28.9818,-94.9186,2.0,282.0873331,25.59747058,-99999.0,'11111222,11111222,99999999' 
TABS,ioos:station:wmo:42043:1,1997-10-03T06:00:00Z,28.9818,-94.9186,2.0,284.8366647,23.27598763,-99999.0,'11111222,11111222,99999999' 
TABS,ioos:station:wmo:42043:1,1997-10-03T06:30:00Z,28.9818,-94.9186,2.0,284.3122125,21.68293569,-99999.0,'11111222,11111222,99999999' 
TABS,ioos:station:wmo:42043:1,1997-10-03T07:00:00Z,28.9818,-94.9186,2.0,283.0619415,23.09758429,-99999.0,'11111222,11111222,99999999' 
TABS,ioos:station:wmo:42043:1,1997-10-03T07:30:00Z,28.9818,-94.9186,2.0,279.5368252,21.60862096,-99999.0,'11111222,11111222,99999999' 
TABS,ioos:station:wmo:42043:1,1997-10-03T08:00:00Z,28.9818,-94.9186,2.0,274.2996253,19.87592765,-99999.0,'11111222,11111222,99999999' 
TABS,ioos:station:wmo:42043:1,1997-10-03T08:30:00Z,28.9818,-94.9186,2.0,272.4856513,17.29626838,-99999.0,'11111222,11111222,99999999' 
TABS,ioos:station:wmo:42043:1,1997-10-03T09:00:00Z,28.9818,-94.9186,2.0,262.4596271,15.92771798,-99999.0,'11111222,11111222,99999999' 
TABS,ioos:station:wmo:42043:1,1997-10-03T09:30:00Z,28.9818,-94.9186,2.0,252.9521859,13.7124943,-99999.0,'11111222,11111222,99999999' 
TABS,ioos:station:wmo:42043:1,1997-10-03T10:00:00Z,28.9818,-94.9186,2.0,245.6289417,15.53417523,-99999.0,'11111222,11111222,99999999' 
TABS,ioos:station:wmo:42043:1,1997-10-03T10:30:00Z,28.9818,-94.9186,2.0,236.8017802,19.04910759,-99999.0,'11111222,11111222,99999999' 
TABS,ioos:station:wmo:42043:1,1997-10-03T11:00:00Z,28.9818,-94.9186,2.0,235.9434381,19.96406772,-99999.0,'11111222,11111222,99999999' 
TABS,ioos:station:wmo:42043:1,1997-10-03T11:30:00Z,28.9818,-94.9186,2.0,230.6867993,22.33429874,-99999.0,'11111222,11111222,99999999' 
TABS,ioos:station:wmo:42043:1,1997-10-03T12:00:00Z,28.9818,-94.9186,2.0,231.2440789,25.22365953,-99999.0,'11111222,11111222,99999999' 
TABS,ioos:station:wmo:42043:1,1997-10-03T12:30:00Z,28.9818,-94.9186,2.0,231.7192483,24.29336123,-99999.0,'11111222,11111222,99999999' 
TABS,ioos:station:wmo:42043:1,1997-10-03T13:00:00Z,28.9818,-94.9186,2.0,222.4199198,23.40774444,-99999.0,'11111222,11111222,99999999' 
TABS,ioos:station:wmo:42043:1,1997-10-03T13:30:00Z,28.9818,-94.9186,2.0,224.8027928,30.86539324,-99999.0,'11111222,11111222,99999999' 
TABS,ioos:station:wmo:42043:1,1997-10-03T14:00:00Z,28.9818,-94.9186,2.0,225.1839931,32.9725598,-99999.0,'11111222,11111222,99999999' 
TABS,ioos:station:wmo:42043:1,1997-10-03T14:30:00Z,28.9818,-94.9186,2.0,224.6391879,33.71551868,-99999.0,'11111222,11111222,99999999' 
TABS,ioos:station:wmo:42043:1,1997-10-03T15:00:00Z,28.9818,-94.9186,2.0,224.817717,33.39682171,-99999.0,'11111222,11111222,99999999' 
TABS,ioos:station:wmo:42043:1,1997-10-03T15:30:00Z,28.9818,-94.9186,2.0,218.8906585,17.80707724,-99999.0,'11111222,11111222,99999999' 
TABS,ioos:station:wmo:42043:1,1997-10-03T16:00:00Z,28.9818,-94.9186,2.0,220.7326527,14.16017302,-99999.0,'11111222,11111222,99999999' 
TABS,ioos:station:wmo:42043:1,1997-10-03T16:30:00Z,28.9818,-94.9186,2.0,224.609924,31.18413058,-99999.0,'11111222,11111222,99999999' 
TABS,ioos:station:wmo:42043:1,1997-10-03T17:00:00Z,28.9818,-94.9186,2.0,227.7072893,26.79390416,-99999.0,'11111222,11111222,99999999' 
TABS,ioos:station:wmo:42043:1,1997-10-03T17:30:00Z,28.9818,-94.9186,2.0,224.7456408,23.92165755,-99999.0,'11111222,11111222,99999999' 
TABS,ioos:station:wmo:42043:1,1997-10-03T18:00:00Z,28.9818,-94.9186,2.0,224.216768,23.28720035,-99999.0,'11111222,11111222,99999999' 
TABS,ioos:station:wmo:42043:1,1997-10-03T18:30:00Z,28.9818,-94.9186,2.0,227.0024006,30.14823544,-99999.0,'11111222,11111222,99999999' 
TABS,ioos:station:wmo:42043:1,1997-10-03T19:00:00Z,28.9818,-94.9186,2.0,229.0214398,42.04203254,-99999.0,'11111222,11111222,99999999' 
TABS,ioos:station:wmo:42043:1,1997-10-03T19:30:00Z,28.9818,-94.9186,2.0,229.3082662,37.93033746,-99999.0,'11111222,11111222,99999999' 
TABS,ioos:station:wmo:42043:1,1997-10-03T20:00:00Z,28.9818,-94.9186,2.0,229.2404405,34.23284096,-99999.0,'11111222,11111222,99999999' 
TABS,ioos:station:wmo:42043:1,1997-10-03T20:30:00Z,28.9818,-94.9186,2.0,230.5844168,36.83834551,-99999.0,'11111222,11111222,99999999' 
TABS,ioos:station:wmo:42043:1,1997-10-03T21:00:00Z,28.9818,-94.9186,2.0,227.812861,27.95025939,-99999.0,'11111222,11111222,99999999' 
TABS,ioos:station:wmo:42043:1,1997-10-03T21:30:00Z,28.9818,-94.9186,2.0,223.6310018,26.34724464,-99999.0,'11111222,11111222,99999999' 
TABS,ioos:station:wmo:42043:1,1997-10-03T22:00:00Z,28.9818,-94.9186,2.0,218.3483436,21.85527854,-99999.0,'11111222,11111222,99999999' 
TABS,ioos:station:wmo:42043:1,1997-10-03T22:30:00Z,28.9818,-94.9186,2.0,217.8728362,27.18616744,-99999.0,'11111222,11111222,99999999' 
TABS,ioos:station:wmo:42043:1,1997-10-03T23:00:00Z,28.9818,-94.9186,2.0,216.5369175,26.5224471,-99999.0,'11111222,11111222,99999999' 
TABS,ioos:station:wmo:42043:1,1997-10-03T23:30:00Z,28.9818,-94.9186,2.0,215.6402201,49.87147983,-99999.0,'11111222,11111222,99999999' 
TABS,ioos:station:wmo:42043:1,1997-10-04T00:00:00Z,28.9818,-94.9186,2.0,212.9027486,51.28687161,-99999.0,'11111222,11111222,99999999' 
TABS,ioos:station:wmo:42043:1,1997-10-04T00:30:00Z,28.9818,-94.9186,2.0,210.4674601,52.8938607,-99999.0,'11111222,11111222,99999999' 
TABS,ioos:station:wmo:42043:1,1997-10-04T01:00:00Z,28.9818,-94.9186,2.0,207.2194458,52.44816203,-99999.0,'11111222,11111222,99999999' 
TABS,ioos:station:wmo:42043:1,1997-10-04T01:30:00Z,28.9818,-94.9186,2.0,208.1947027,56.13012827,-99999.0,'11111222,11111222,99999999' 
TABS,ioos:station:wmo:42043:1,1997-10-04T02:00:00Z,28.9818,-94.9186,2.0,207.4537934,55.91737476,-99999.0,'11111222,11111222,99999999' 
TABS,ioos:station:wmo:42043:1,1997-10-04T02:30:00Z,28.9818,-94.9186,2.0,207.2161116,53.11004613,-99999.0,'11111222,11111222,99999999' 
TABS,ioos:station:wmo:42043:1,1997-10-04T03:00:00Z,28.9818,-94.9186,2.0,210.2981295,48.14632904,-99999.0,'11111222,11111222,99999999' 
TABS,ioos:station:wmo:42043:1,1997-10-04T03:30:00Z,28.9818,-94.9186,2.0,212.7975273,37.40242238,-99999.0,'11111222,11111222,99999999' 
TABS,ioos:station:wmo:42043:1,1997-10-04T04:00:00Z,28.9818,-94.9186,2.0,243.2410244,19.85639695,-99999.0,'11111222,11111222,99999999' 
TABS,ioos:station:wmo:42043:1,1997-10-04T04:30:00Z,28.9818,-94.9186,2.0,266.8337977,13.58072531,-99999.0,'11111222,11111222,99999999' 
TABS,ioos:station:wmo:42043:1,1997-10-04T05:00:00Z,28.9818,-94.9186,2.0,258.5796102,14.2929703,-99999.0,'11111222,11111222,99999999' 
TABS,ioos:station:wmo:42043:1,1997-10-04T05:30:00Z,28.9818,-94.9186,2.0,273.0344535,11.33588991,-99999.0,'11111222,11111222,99999999' 
TABS,ioos:station:wmo:42043:1,1997-10-04T06:00:00Z,28.9818,-94.9186,2.0,270.0004209,12.81,-99999.0,'11111222,11111222,99999999' 
TABS,ioos:station:wmo:42043:1,1997-10-04T06:30:00Z,28.9818,-94.9186,2.0,289.4640752,10.74398902,-99999.0,'11111222,11111222,99999999' 
TABS,ioos:station:wmo:42043:1,1997-10-04T07:00:00Z,28.9818,-94.9186,2.0,287.8148204,8.760022831,-99999.0,'11133222,11111222,99999999' 
TABS,ioos:station:wmo:42043:1,1997-10-04T07:30:00Z,28.9818,-94.9186,2.0,286.2810203,10.09480064,-99999.0,'11111222,11111222,99999999' 
TABS,ioos:station:wmo:42043:1,1997-10-04T08:00:00Z,28.9818,-94.9186,2.0,296.1590647,9.458805421,-99999.0,'11133222,11111222,99999999' 
TABS,ioos:station:wmo:42043:1,1997-10-04T08:30:00Z,28.9818,-94.9186,2.0,304.2719761,8.470708353,-99999.0,'11133222,11111222,99999999' 
TABS,ioos:station:wmo:42043:1,1997-10-04T09:00:00Z,28.9818,-94.9186,2.0,290.788618,9.241644875,-99999.0,'11133222,11111222,99999999' 
TABS,ioos:station:wmo:42043:1,1997-10-04T09:30:00Z,28.9818,-94.9186,2.0,283.5688031,9.505288002,-99999.0,'11133222,11111222,99999999' 
TABS,ioos:station:wmo:42043:1,1997-10-04T10:00:00Z,28.9818,-94.9186,2.0,282.3573893,9.76625312,-99999.0,'11133222,11111222,99999999' 
TABS,ioos:station:wmo:42043:1,1997-10-04T10:30:00Z,28.9818,-94.9186,2.0,286.0611862,10.22926195,-99999.0,'11111222,11111222,99999999' 
TABS,ioos:station:wmo:42043:1,1997-10-04T11:00:00Z,28.9818,-94.9186,2.0,276.7480584,8.851310637,-99999.0,'11133222,11111222,99999999' 
TABS,ioos:station:wmo:42043:1,1997-10-04T11:30:00Z,28.9818,-94.9186,2.0,266.258459,11.49449433,-99999.0,'11111222,11111222,99999999' 
TABS,ioos:station:wmo:42043:1,1997-10-04T12:00:00Z,28.9818,-94.9186,2.0,307.5050441,18.59314121,-99999.0,'11111222,11111222,99999999' 
TABS,ioos:station:wmo:42043:1,1997-10-04T12:30:00Z,28.9818,-94.9186,2.0,307.6404859,15.62141159,-99999.0,'11111222,11111222,99999999' 
TABS,ioos:station:wmo:42043:1,1997-10-04T13:00:00Z,28.9818,-94.9186,2.0,319.3136177,19.64958269,-99999.0,'11111222,11111222,99999999' 
TABS,ioos:station:wmo:42043:1,1997-10-04T13:30:00Z,28.9818,-94.9186,2.0,324.7385442,22.44884184,-99999.0,'11111222,11111222,99999999' 
TABS,ioos:station:wmo:42043:1,1997-10-04T14:00:00Z,28.9818,-94.9186,2.0,317.8849101,35.54887481,-99999.0,'11111222,11111222,99999999' 
TABS,ioos:station:wmo:42043:1,1997-10-04T14:30:00Z,28.9818,-94.9186,2.0,311.3065901,27.76920056,-99999.0,'11111222,11111222,99999999' 
TABS,ioos:station:wmo:42043:1,1997-10-04T15:00:00Z,28.9818,-94.9186,2.0,316.5144604,23.81660135,-99999.0,'11111222,11111222,99999999' 
TABS,ioos:station:wmo:42043:1,1997-10-04T15:30:00Z,28.9818,-94.9186,2.0,317.1967335,30.25811627,-99999.0,'11111222,11111222,99999999' 
TABS,ioos:station:wmo:42043:1,1997-10-04T16:00:00Z,28.9818,-94.9186,2.0,324.2350834,29.56549509,-99999.0,'11111222,11111222,99999999' 